Regional Weather Roundup
Issued by NWS New Orleans/Baton Rouge, LA

Home | Current Version | Previous Version | Text Only | Print | Product List | Glossary Off
Versions: 1 2 3 4 5 6 7 8 9 10 11 12 13 14 15 16 17 18 19 20 21 22 23 24 25 26 27 28 29 30 31 32 33 34 35 36 37 38 39 40 41 42 43 44 45 46 47 48 49 50

341
ASUS44 KLIX 270907
RWRLIX
NEW ORLEANS REGIONAL WEATHER ROUNDUP
NATIONAL WEATHER SERVICE NEW ORLEANS LA
400 AM CDT FRI MAR 27 2015

NOTE: "FAIR" INDICATES FEW OR NO CLOUDS BELOW 12,000 FEET WITH NO
      SIGNIFICANT WEATHER AND/OR OBSTRUCTIONS TO VISIBILITY.
      SKY/WX - SKY CONDITION AND SIGNIFICANT WEATHER.
      TMP - AIR TEMPERATURE.     DP    - DEWPOINT TEMPERATURE.
      RH  - RELATIVE HUMIDITY.   PRES  - PRESSURE.
      HI  - HEAT INDEX.          WCI   - WIND CHILL INDEX.

*  THESE STATIONS ARE NOT NWS OR FAA STATIONS AND ARE NOT UNDER
   NWS QUALITY CONTROL.

LAZ038-040-048-061>063-065>067-069-271000-
SOUTHEAST LOUISIANA

CITY           SKY/WX    TMP DP  RH WIND       PRES   REMARKS
N.O. AUDUBON     N/A     55  52  90 MISG        N/A
N.O. INTL ARPT CLOUDY    55  47  74 N20G28    29.95S
N.O. LAKEFRONT CLOUDY    57  49  74 N23G32    29.95S
SLIDELL        CLOUDY    54  49  83 N12G20    29.93S
BATON ROUGE    MOCLDY    51  44  77 VRB7      30.01S
BOOTHVILLE     CLOUDY    59  56  89 N13       29.90S
BELLE CHASSE   CLOUDY    56  48  74 N13G26    29.93R
BOGALUSA*        N/A     54  47  77 N16       29.97S
GALLIANO*      CLOUDY    58  54  85 MISG      29.94S
NEW ROADS*       N/A     50  42  74 NW9       30.02F
GONZALES*      CLOUDY    53  48  83 NW8G17    29.99R
HAMMOND*       CLOUDY    52  45  76 N15G22    29.99S
HOUMA*         CLOUDY    55  50  83 N14       29.96R
PORT FOURCHON* CLOUDY    59  55  88 N20       29.95S

$$

MSZ070-080>082-271000-
SOUTHERN MISSISSIPPI

CITY           SKY/WX    TMP DP  RH WIND       PRES   REMARKS
MCCOMB         CLOUDY    50  43  77 N14G22    29.99S
GULFPORT       CLOUDY    56  50  80 NW15      29.90R
BILOXI         CLOUDY    57  52  82 N15       29.89R
PASCAGOULA     MOCLDY    56  52  86 N10G22    29.88S

$$

COASTAL OBSERVATIONS
LAKE AND NEARSHORE STATIONS

STATION/POSITION TIME  TEMP    WIND        PRES    WAVE
                       AIR SEA DIR/SP/G            HT/PER
                 (UTC) (F)     (DEG/KT/KT) (MB)    (FT/S)
PASCAGOULA       0800   59     340/ 11/ 16 1010.9
WAVELAND YACHT   0800   57 68  350/ 16/ 23 1012.4
GRAND ISLE       0800   61 70  350/ 19/ 23 1012.1
SOUTHWEST PASS   0800   59 51  340/ 16/ 18 1012.4
NEW CANAL        0800   58     360/ 22/ 27 1014.2
SHELL BEACH      0800   58 70  340/ 20/ 23 1012.7

OFFSHORE STATIONS

STATION/POSITION TIME  TEMP    WIND        PRES    WAVE
                       AIR SEA DIR/SP/G            HT/PER
                 (UTC) (F)     (DEG/KT/KT) (MB)    (FT/S)
64 S DAUPHIN ISL 0850   68 73  280/ 17/ 19 1010.9    4/ 4

$$




USA.gov is the U.S. government's official web portal to all federal, state and local government web resources and services.